Weather History for KPBH - November, 2013

Change the Weather History Date:

Wednesday, November 6, 2013

  Actual Average Record
Temperature  
Mean Temperature 27 °F -  
Max Temperature 32 °F 41 °F 62 °F (2008)
Min Temperature 22 °F 27 °F 12 °F (2003)
Degree Days  
Heating Degree Days 38    
Moisture  
Dew Point 27 °F    
Average Humidity 91    
Maximum Humidity 100    
Minimum Humidity 80    
Precipitation  
Precipitation 0.08 in - - ()
Sea Level Pressure  
Sea Level Pressure 29.96 in    
Wind  
Wind Speed 6 mph (NW)    
Max Wind Speed 10 mph    
Max Gust Speed 18 mph    
Visibility 8 miles    
Events Rain , Snow    
Averages and records for this station are not official NWS values.
T = Trace of Precipitation, MM = Missing Value Source: NWS Daily Summary

Daily Weather History Graph

Daily Weather History Graph

Search for Another Location

Airport or City:

Trip Planner

Search our weather history database for the weather conditions in past years. The results will help you decide how hot, cold, wet, or windy it might be!

Date:

Astronomy

Nov. 06, 2013 Rise Set
Actual Time 6:48 AM CST 4:40 PM CST
Civil Twilight 6:17 AM CST 5:12 PM CST
Nautical Twilight 5:42 AM CST 5:47 PM CST
Astronomical Twilight 5:07 AM CST 6:22 PM CST
Moon 10:08 AM CST (11/6) 7:41 PM CST (11/6)
Length of Visible Light 10h 54m
Length of Day
9h 51m
Waxing Crescent, 14% of the Moon is Illuminated
Nov 6
Waxing Crescent
Nov 9
First Quarter
Nov 17
Full
Nov 25
Last Quarter
Dec 2
New

Hourly Weather History & Observations

Time (CST) Temp. Windchill Dew Point Humidity Pressure Visibility Wind Dir Wind Speed Gust Speed Precip Events Conditions
12:55 AM 32.0 °F 24.2 °F 32.0 °F 100% 29.91 in 4.0 mi NNE 9.2 mph - 0.05 in Snow Light Snow
1:15 AM 32.0 °F 24.8 °F 32.0 °F 100% 29.91 in 5.0 mi North 8.1 mph - 0.01 in Snow Light Snow
1:35 AM 32.0 °F 24.8 °F 32.0 °F 100% 29.90 in 5.0 mi North 8.1 mph - 0.01 in Rain Light Rain
1:55 AM 32.0 °F 25.6 °F 32.0 °F 100% 29.90 in 5.0 mi North 6.9 mph - 0.02 in Snow Light Snow
2:15 AM 32.0 °F 26.4 °F 31.8 °F 99% 29.90 in 5.0 mi North 5.8 mph - N/A Snow Light Snow
2:35 AM 32.0 °F 24.8 °F 31.8 °F 99% 29.89 in 5.0 mi North 8.1 mph - N/A Snow Light Snow
2:55 AM 32.0 °F 25.6 °F 31.6 °F 99% 29.89 in 5.0 mi North 6.9 mph - N/A Snow Light Snow
3:15 AM 32.0 °F 24.8 °F 31.6 °F 99% 29.88 in 5.0 mi North 8.1 mph - N/A Snow Light Snow
3:35 AM 32.0 °F 25.6 °F 31.6 °F 99% 29.88 in 5.0 mi North 6.9 mph - N/A Snow Light Snow
3:55 AM 32.0 °F 26.4 °F 31.6 °F 99% 29.88 in 4.0 mi NNW 5.8 mph - N/A Snow Light Snow
4:15 AM 32.0 °F 25.6 °F 31.5 °F 98% 29.88 in 3.0 mi North 6.9 mph - N/A Snow Light Snow
4:35 AM 32.0 °F 25.6 °F 31.1 °F 96% 29.88 in 4.0 mi NNW 6.9 mph - N/A Snow Light Snow
4:55 AM 32.0 °F 24.2 °F 30.9 °F 96% 29.88 in 4.0 mi NNW 9.2 mph 16.1 mph N/A Snow Light Snow
5:15 AM 32.0 °F 23.6 °F 30.9 °F 96% 29.89 in 3.0 mi NNW 10.4 mph - 0.01 in Snow Light Snow
5:35 AM 32.0 °F 24.8 °F 30.9 °F 96% 29.88 in 3.0 mi NNW 8.1 mph - 0.01 in Snow Light Snow
5:55 AM 32.0 °F 24.2 °F 30.7 °F 95% 29.88 in 4.0 mi NNW 9.2 mph - 0.01 in Snow Light Snow
6:15 AM 31.8 °F 23.3 °F 30.4 °F 94% 29.88 in 4.0 mi NNW 10.4 mph - N/A Snow Light Snow
6:35 AM 31.6 °F 24.4 °F 30.2 °F 94% 29.89 in 7.0 mi NNW 8.1 mph - N/A Snow Light Snow
6:55 AM 31.5 °F 24.9 °F 30.0 °F 94% 29.89 in 10.0 mi NNW 6.9 mph - N/A Snow Light Snow
7:15 AM 31.5 °F 24.2 °F 30.2 °F 95% 29.87 in 7.0 mi North 8.1 mph - N/A Snow Light Snow
7:35 AM 31.1 °F 24.5 °F 29.8 °F 95% 29.88 in 10.0 mi NNW 6.9 mph - N/A   Overcast
7:55 AM 31.1 °F 23.7 °F 29.8 °F 95% 29.89 in 10.0 mi NNW 8.1 mph - N/A Snow Light Snow
8:15 AM 31.1 °F 26.4 °F 29.8 °F 95% 29.89 in 10.0 mi NNW 4.6 mph - N/A   Overcast
8:35 AM 31.1 °F 25.4 °F 29.5 °F 94% 29.90 in 10.0 mi NW 5.8 mph - N/A   Overcast
8:55 AM 31.1 °F 25.4 °F 29.5 °F 94% 29.90 in 10.0 mi NNW 5.8 mph - N/A   Overcast
9:15 AM 31.1 °F 23.1 °F 29.3 °F 93% 29.89 in 10.0 mi NNW 9.2 mph - N/A   Overcast
9:35 AM 31.1 °F 24.5 °F 29.1 °F 92% 29.90 in 10.0 mi NNW 6.9 mph - N/A   Overcast
9:55 AM 31.3 °F 24.7 °F 28.6 °F 90% 29.91 in 10.0 mi NNW 6.9 mph - N/A   Overcast
10:15 AM 31.6 °F 25.1 °F 28.8 °F 89% 29.92 in 10.0 mi NNW 6.9 mph - N/A   Overcast
10:35 AM 31.6 °F 24.4 °F 28.4 °F 88% 29.92 in 10.0 mi NW 8.1 mph - N/A   Overcast
10:55 AM 31.5 °F 23.5 °F 28.2 °F 88% 29.93 in 10.0 mi NW 9.2 mph - N/A   Overcast
11:15 AM 31.5 °F 25.8 °F 28.4 °F 88% 29.93 in 10.0 mi NNW 5.8 mph - N/A   Overcast
11:35 AM 31.5 °F 25.8 °F 28.6 °F 89% 29.93 in 10.0 mi NW 5.8 mph - N/A   Overcast
11:55 AM 31.5 °F 24.2 °F 28.0 °F 87% 29.92 in 10.0 mi NW 8.1 mph - N/A   Overcast
12:15 PM 31.5 °F 25.8 °F 27.7 °F 86% 29.92 in 10.0 mi WNW 5.8 mph - N/A   Scattered Clouds
12:35 PM 31.1 °F 23.1 °F 27.0 °F 85% 29.92 in 10.0 mi WNW 9.2 mph - N/A   Mostly Cloudy
12:55 PM 31.1 °F 24.5 °F 27.1 °F 85% 29.93 in 10.0 mi NW 6.9 mph - N/A   Overcast
1:15 PM 31.1 °F 22.4 °F 27.5 °F 87% 29.94 in 10.0 mi WNW 10.4 mph 16.1 mph N/A   Overcast
1:35 PM 30.6 °F 23.1 °F 26.4 °F 85% 29.94 in 10.0 mi NW 8.1 mph - N/A   Mostly Cloudy
1:55 PM 30.9 °F 22.8 °F 26.8 °F 85% 29.96 in 10.0 mi West 9.2 mph - N/A   Overcast
2:15 PM 31.3 °F 24.7 °F 25.9 °F 80% 29.96 in 10.0 mi WNW 6.9 mph - N/A   Overcast
2:35 PM 30.7 °F 23.3 °F 25.7 °F 82% 29.96 in 10.0 mi NW 8.1 mph 18.4 mph N/A   Mostly Cloudy
2:55 PM 29.8 °F 23.9 °F 25.5 °F 84% 29.97 in 10.0 mi WNW 5.8 mph - N/A   Scattered Clouds
3:15 PM 30.9 °F 24.3 °F 26.1 °F 82% 29.98 in 10.0 mi WNW 6.9 mph - N/A   Scattered Clouds
3:35 PM 30.9 °F - 26.6 °F 84% 29.99 in 10.0 mi Calm Calm - N/A   Mostly Cloudy
3:55 PM 30.4 °F 25.6 °F 26.4 °F 85% 29.99 in 10.0 mi WNW 4.6 mph - N/A   Mostly Cloudy
4:15 PM 30.9 °F 26.2 °F 26.2 °F 83% 29.99 in 10.0 mi WNW 4.6 mph - N/A   Scattered Clouds
4:35 PM 30.2 °F 26.7 °F 26.2 °F 85% 30.00 in 10.0 mi West 3.5 mph - N/A   Clear
4:55 PM 29.7 °F - 26.2 °F 87% 30.00 in 10.0 mi Calm Calm - N/A   Scattered Clouds
5:15 PM 29.3 °F - 26.6 °F 90% 30.01 in 10.0 mi Calm Calm - N/A   Mostly Cloudy
5:35 PM 29.7 °F - 27.0 °F 90% 30.02 in 10.0 mi Calm Calm - N/A   Overcast
5:55 PM 29.1 °F - 26.8 °F 91% 30.02 in 10.0 mi Calm Calm - N/A   Overcast
6:15 PM 28.6 °F - 26.6 °F 92% 30.03 in 10.0 mi Calm Calm - N/A   Mostly Cloudy
6:35 PM 28.2 °F - 26.6 °F 94% 30.04 in 10.0 mi Calm Calm - N/A   Scattered Clouds
6:55 PM 27.5 °F 23.6 °F 26.1 °F 94% 30.04 in 10.0 mi NW 3.5 mph - N/A   Clear
7:15 PM 27.5 °F 23.6 °F 23.9 °F 86% 30.04 in 10.0 mi NW 3.5 mph - N/A   Clear
7:35 PM 27.0 °F 23.0 °F 22.8 °F 84% 30.04 in 10.0 mi NW 3.5 mph - N/A   Clear
7:55 PM 26.2 °F - 22.3 °F 85% 30.04 in 10.0 mi Calm Calm - N/A   Clear
8:15 PM 25.7 °F - 22.1 °F 86% 30.05 in 10.0 mi Calm Calm - N/A   Clear
8:35 PM 25.2 °F 20.9 °F 22.1 °F 88% 30.06 in 10.0 mi WNW 3.5 mph - N/A   Clear
8:55 PM 24.8 °F - 21.6 °F 87% 30.06 in 10.0 mi Calm Calm - N/A   Clear
9:15 PM 24.4 °F - 21.7 °F 89% 30.07 in 10.0 mi Calm Calm - N/A   Clear
9:35 PM 24.1 °F - 21.4 °F 89% 30.08 in 10.0 mi Calm Calm - N/A   Clear
9:55 PM 23.5 °F - 21.4 °F 91% 30.08 in 10.0 mi Calm Calm - N/A   Clear
10:15 PM 22.8 °F - 21.0 °F 93% 30.08 in 10.0 mi Calm Calm - N/A   Clear
10:35 PM 23.0 °F - 21.2 °F 93% 30.08 in 10.0 mi Calm Calm - N/A   Clear
10:55 PM 23.0 °F - 21.2 °F 93% 30.08 in 10.0 mi Calm Calm - N/A   Clear
11:15 PM 23.0 °F - 21.2 °F 93% 30.08 in 10.0 mi Calm Calm - N/A   Clear
11:35 PM 22.6 °F 18.0 °F 20.8 °F 93% 30.08 in 10.0 mi WSW 3.5 mph - N/A   Clear
11:55 PM 23.0 °F - 20.5 °F 90% 30.08 in 10.0 mi Calm Calm - N/A   Clear